THOR ABLESTAR DEB, 1943

Orbit data source: Space-Track

THOR ABLESTAR DEB, 1943 is space debris in LEO originally from a launch on Thu, 29 Jun 1961 UTC launched from the Air Force Eastern Test Range (AFETR). Debris objects in space refer to the collection of defunct objects orbiting the Earth. Examples of debris include non-operational satellites, rocket bodies, and fragments generated from explosions, collisions, or faulty payload assembly.

Loading next visibility...
Identifier
1943, 1961-015HT
Orbit
LEO
Country
Flag of USUS
Related business
Manufacturer
Unknown
Mission
Spacecraft
Bus & Motor
Unknown
Mass
Unknown
Launch date (UTC)
1961-06-29 (65 years ago)
Launch vehicle
Unknown
Launch site
Air Force Eastern Test Range (AFETR)
Object type
Payload
Rocket body
Debris
Shape & HBR
Unknown shape, 0.050 m
Radar Cross Section
Medium (>0.1 m² and <1 m²)

Expand to show TLE details & history
Last TLE update: 22 hours ago

TLE from 22 hours ago
0 THOR ABLESTAR DEB
1 01943U 61015HT  26266.06681918  .00000554  00000-0  25252-3 0  9994
2 01943  66.8544 280.0446 0058556 223.0140 136.6374 14.27916792358135
Epoch: 2026-09-23T01:36Z
TLE epoch observation values (Epoch: 2026-09-23T01:36:13.177Z)
Latitude
0.00001°
Longitude
-105.93357°
Altitude
831.491 km
Speed
7.422 km/s
True Right ascension
18h 40m 10s
True Declination
0° 00' 00"
Sunlit
Object was in daylight at epoch
Visualization orbit readout
Latitude
Unknown
Longitude
Unknown
Altitude
Unknown
Speed
Unknown
Apparent Right ascension
Unknown
Apparent Declination
Unknown
Sunlit
N/A
Visualization observer readout
Local Sidereal Time
16:33:30
Azimuth
Unknown
Elevation
Unknown
Doppler factor
Unknown
Orbital elements
Apogee altitude
839.076 km
Perigee altitude
755.046 km
Semi-major axis
7,175.198 km
Eccentricity
0.00586
Inclination
66.8544°
RAAN
280.0446°
Arg. of periapsis
223.014°
True anomaly
137.09567°
Mean anomaly
136.6374°
Eccentric anomaly
136.86678°
Mean motion
3.57102 °/min
Orbital period
100.81 mins
BSTAR
0.00025252
Loading maneuver chart data...
Computing Atmospheric mass density...
Loading historical data...
Loading historical data...
Loading historical data...
Loading historical data...
Loading historical data...
Loading historical data...
Loading historical data...

Documentation

Showing up to 5 results
|